Location: Aytr�
(46.1357°N, 1.1145°W)
Time: 10:28:29
(UTC+00:00)

N. Korean satellite - Visible Passes

Search period start: 21 September 2021 00:00
Search period end: 01 October 2021 00:00
Orbit: 448 x 498 km, 97.3° (Epoch: 20 September)

Date Brightness Start Highest point End Pass type
(mag) Time Alt. Az. Time Alt. Az. Time Alt. Az.
22 Sep 8.5 04:56:25 10° NNE 04:59:39 33° E 05:02:55 10° SSE visible
23 Sep 9.7 04:29:25 10° NE 04:31:44 16° E 04:34:03 10° SE visible
25 Sep 7.8 05:06:12 10° NNE 05:09:37 45° E 05:13:04 10° S visible
26 Sep 9.4 04:38:55 10° NE 04:41:43 21° E 04:44:32 10° SE visible
27 Sep 10.2 04:13:04 10° E 04:13:42 10° E 04:14:21 10° E visible
28 Sep 7.2 05:15:58 10° NNE 05:19:31 61° E 05:23:05 10° S visible
29 Sep 8.9 04:48:31 10° NE 04:51:39 28° E 04:54:47 10° SSE visible
30 Sep 9.9 04:21:45 10° ENE 04:23:40 14° E 04:25:34 10° ESE visible
